Theta_e
345 345 344 342 342 344 345 346 345 345 346 347 348 349 348 346 345 342 341 343 341 340 339 338 337 338 338 337 337 341 342 343 343 344 344 344 345 344 344 338 339 346 347
342 344 344 340 343 344 343 342 342 344 345 344 344 346 346 347 348 345 343 343 341 342 338 339 339 339 343 340 338 339 342 342 339 338 340 342 342 337 334 337 338 338 348
343 343 345 344 341 340 340 340 339 340 341 343 343 344 346 347 346 345 343 345 343 343 341 345 346 345 344 343 341 341 341 340 342 345 345 342 338 338 336 336 336 338 336
344 343 344 344 343 341 340 339 339 340 341 341 343 346 348 347 347 345 346 344 345 345 343 342 344 345 344 346 343 342 345 346 347 349 348 347 346 346 348 347 340 334 329
343 342 342 340 343 343 341 341 341 341 341 341 342 344 344 347 348 345 346 345 346 347 347 347 348 348 344 345 346 346 346 347 348 348 349 348 346 344 347 350 348 344 338
340 341 340 337 336 342 341 338 338 342 345 344 343 342 343 344 346 349 350 348 345 346 344 346 345 346 346 346 344 343 343 345 347 346 347 348 346 346 352 350 347 344 342
339 336 333 336 338 337 337 338 338 339 342 344 344 344 346 346 345 345 345 348 350 347 345 343 339 338 338 341 344 347 347 347 347 347 346 345 346 344 346 346 344 342 341
339 339 340 338 340 341 341 340 337 338 338 339 345 344 345 346 346 346 346 346 346 347 347 348 346 343 342 340 344 347 347 347 348 348 350 349 347 346 345 344 341 341 339
339 339 338 339 340 340 340 340 338 341 340 339 342 343 341 343 344 346 346 346 346 346 346 347 348 348 347 346 346 345 344 344 343 343 345 347 347 345 343 346 345 346 346
328 330 332 333 337 340 341 341 340 339 336 336 340 337 340 341 342 343 344 345 346 346 346 347 347 347 348 348 347 347 347 346 347 346 345 345 345 346 349 349 348 348 348
323 325 325 325 325 324 322 320 323 327 329 333 336 338 338 339 338 341 342 342 343 345 346 346 347 347 348 348 348 348 349 348 348 348 349 349 350 350 351 350 350 350 351
313 315 319 321 322 323 323 322 321 322 330 333 332 331 331 332 332 333 335 338 339 340 341 343 340 342 340 341 345 347 347 347 348 349 349 349 350 349 348 345 346 348 349
309 310 311 312 314 317 320 321 322 323 322 321 324 326 327 326 325 326 328 327 327 331 332 330 333 330 324 325 327 333 341 346 346 347 348 348 346 341 339 339 345 346 348
307 308 310 311 312 313 314 315 317 320 321 322 322 321 321 321 321 321 321 321 320 320 321 320 321 321 321 322 322 323 323 323 328 335 336 335 332 325 326 337 344 346 348
306 306 307 308 309 311 312 313 314 315 316 316 317 318 318 318 318 319 320 320 321 320 320 320 320 320 320 321 321 320 321 323 324 324 325 325 325 329 334 341 343 345 346
304 304 304 304 305 305 305 305 306 308 309 311 313 314 316 317 317 318 318 318 318 318 317 316 316 317 319 319 320 320 320 321 321 322 324 325 324 324 327 335 341 344 346
302 301 301 301 301 301 302 302 302 302 302 302 303 304 304 306 307 307 307 307 308 308 309 310 312 314 316 317 319 320 320 321 323 323 319 314 314 314 316 319 323 331 338
300 300 300 300 300 300 300 301 301 301 301 301 301 301 302 302 302 302 303 303 303 304 305 307 308 310 312 314 318 320 322 323 323 324 324 322 320 318 315 313 313 317 322
299 299 299 299 299 300 300 300 300 300 301 301 301 301 301 301 302 302 302 302 302 302 302 302 303 308 311 312 315 317 318 320 321 323 324 323 322 321 320 319 317 314 312
299 299 299 299 299 299 299 299 299 299 300 300 300 300 300 301 301 300 300 300 300 300 301 301 301 301 304 309 313 314 314 314 315 317 318 320 321 320 320 320 319 319 318
299 299 299 299 299 299 299 299 299 299 299 299 299 298 298 298 298 298 298 298 298 298 298 298 299 299 300 301 304 308 311 312 313 313 314 315 317 317 317 318 319 319 319
299 299 299 299 299 298 298 298 298 298 298 298 297 297 297 297 297 297 297 296 296 297 297 297 297 297 297 298 299 303 305 305 306 308 310 311 312 313 313 314 315 316 316
299 299 300 299 299 298 298 297 297 297 297 296 296 296 296 296 296 295 295 295 296 296 296 296 296 295 295 296 298 299 300 300 300 302 304 306 308 310 311 310 312 313 313
298 299 300 300 299 298 298 297 297 297 297 296 296 296 296 295 295 294 294 294 294 295 295 295 295 295 295 294 295 296 297 297 297 297 297 298 300 303 307 308 309 311 310
298 300 300 300 300 298 298 298 297 296 296 296 296 296 296 295 295 294 294 294 294 294 294 294 294 295 294 294 294 295 296 296 296 297 297 298 299 301 302 305 307 308 309
299 301 301 301 300 298 298 298 298 297 296 296 296 296 295 295 294 294 293 293 293 293 293 293 293 293 293 294 294 295 297 298 299 299 300 300 300 302 303 304 305 307 308
Wind_Speed
22 18 17 18 17 12 10 6 5 8 9 10 9 9 9 8 8 10 13 13 15 15 14 14 13 14 14 14 13 12 11 12 14 15 16 17 19 21 22 22 18 15 13
20 20 17 17 18 16 14 10 9 8 8 7 9 10 10 10 11 11 12 12 13 11 13 13 13 14 14 15 16 14 14 15 17 18 19 20 23 23 22 17 15 14 16
19 22 19 15 15 18 18 17 15 13 12 12 9 11 10 8 9 9 9 11 11 11 10 10 9 11 14 15 16 15 14 12 12 14 15 16 17 17 16 15 14 14 16
19 15 13 11 10 13 15 15 15 14 14 14 12 10 9 9 9 10 11 12 12 12 10 11 11 13 13 11 10 11 11 10 11 14 16 16 16 16 18 20 18 16 17
17 16 8 7 12 13 15 16 17 18 18 17 16 15 12 13 14 13 15 14 16 15 15 15 15 14 14 15 15 13 14 15 17 18 19 18 19 20 18 19 21 20 18
12 14 12 6 8 20 13 11 16 19 18 19 18 18 20 18 16 16 16 17 17 19 19 19 18 18 17 16 17 18 19 20 20 20 21 24 24 20 20 23 24 25 28
18 19 15 7 12 11 9 11 12 16 14 14 17 17 15 16 18 18 19 20 19 19 20 20 19 20 20 21 22 21 21 21 21 22 25 25 25 22 24 25 26 27 28
19 17 16 16 16 13 11 7 6 8 14 14 14 14 10 14 18 19 21 22 23 22 22 21 22 22 21 21 23 24 25 25 25 24 25 25 24 24 26 27 30 31 31
9 8 10 8 9 8 6 7 9 6 7 14 15 14 14 14 17 21 19 20 21 22 23 23 25 26 26 25 27 29 30 29 27 27 28 28 28 28 29 29 29 28 31
10 9 7 5 3 5 8 8 10 9 7 2 9 15 19 17 17 17 15 12 19 22 21 22 25 27 28 28 30 31 33 32 31 31 33 33 32 31 30 30 29 29 29
4 5 4 4 4 4 4 3 1 2 4 3 1 3 6 5 6 10 13 16 17 18 18 18 18 19 24 26 29 30 31 31 32 30 30 31 30 30 28 28 28 30 31
6 7 7 6 5 5 5 4 4 5 7 6 5 4 4 5 5 5 8 11 13 14 22 16 16 20 18 17 17 18 22 25 25 25 28 29 31 29 29 31 31 30 32
3 4 7 9 10 10 9 8 8 7 7 8 8 9 9 8 9 10 11 12 13 13 14 15 17 18 17 17 16 17 19 18 22 25 24 28 26 26 28 28 27 27 28
4 4 4 5 7 9 10 11 11 10 11 10 10 10 11 12 13 14 14 15 15 15 16 16 17 17 17 17 17 15 17 18 21 24 26 26 26 25 25 23 24 22 26
3 4 4 4 4 4 6 8 9 10 11 12 13 14 16 17 18 17 18 19 19 21 21 22 22 22 21 21 20 19 17 18 20 22 23 24 24 22 21 20 21 23 23
2 3 2 3 2 2 2 3 4 7 9 11 14 15 17 20 22 23 24 25 26 28 28 29 29 27 25 25 25 26 25 23 20 21 22 22 23 24 25 24 22 22 24
2 1 0 0 0 1 2 2 2 3 6 8 10 14 18 20 22 25 25 26 27 27 29 29 29 28 29 28 28 26 27 26 25 25 25 25 24 25 26 26 26 26 27
1 0 1 3 3 3 3 3 4 4 4 5 7 10 14 16 18 21 23 23 23 22 23 24 25 25 25 23 24 25 26 27 26 27 28 27 27 27 27 26 26 28 28
3 2 2 4 5 6 7 7 7 7 7 8 9 10 12 13 14 16 18 18 19 21 23 24 24 24 25 25 23 24 27 27 27 29 29 29 29 29 30 30 29 29 29
6 4 2 3 5 7 8 10 11 12 12 14 15 17 18 19 20 21 22 22 22 23 23 24 24 27 29 29 29 29 31 32 32 32 33 31 29 29 32 33 33 34 33
7 4 2 1 4 6 9 10 12 14 16 17 18 19 21 23 25 26 28 29 29 28 29 29 28 26 26 29 30 33 36 38 38 38 38 38 36 34 32 33 36 39 41
9 6 3 1 5 7 10 11 13 15 17 19 20 22 24 25 26 27 28 30 31 32 32 32 31 31 30 30 30 28 31 36 40 42 42 41 40 42 42 42 41 43 46
11 8 3 2 4 8 10 11 13 15 17 20 22 24 26 28 29 30 32 33 35 36 36 36 35 33 32 28 26 26 34 40 43 43 45 50 51 50 48 45 45 49 49
13 10 5 3 5 8 11 13 15 17 19 20 22 24 26 28 29 30 32 34 35 36 36 37 36 35 33 30 32 33 38 43 44 43 44 49 52 54 52 50 48 50 55
15 11 8 4 5 7 10 13 16 18 19 21 22 24 26 27 28 31 32 34 35 36 37 37 35 34 34 34 34 34 35 37 39 40 43 45 45 45 46 48 49 49 51
16 11 8 7 6 7 9 12 15 17 19 21 22 25 25 27 28 29 30 32 33 33 33 33 33 32 32 33 34 34 35 35 34 33 34 36 39 39 40 41 42 44 46
Wind_Direction
226 234 238 239 239 240 247 240 255 231 229 224 223 241 240 249 257 256 247 247 245 250 257 258 263 267 274 277 273 278 290 300 303 307 311 314 317 320 319 317 318 314 321
239 236 236 237 237 244 248 253 246 242 245 262 262 260 256 252 257 257 245 251 247 251 248 260 262 268 277 275 268 270 280 291 296 300 302 305 309 318 320 317 315 305 307
239 234 228 240 243 242 246 250 247 250 256 251 262 259 258 261 254 257 257 247 248 253 242 252 263 268 271 276 268 268 278 285 291 300 307 312 318 325 326 328 329 316 309
230 217 201 205 236 237 239 250 250 253 256 258 252 249 263 266 273 258 258 253 253 253 253 253 264 266 267 274 263 259 264 274 288 298 303 307 314 322 329 332 329 324 323
225 203 198 211 222 227 234 250 259 257 257 258 259 254 255 256 259 262 263 269 262 260 261 263 267 269 270 265 270 270 268 278 285 288 295 298 309 312 320 326 326 323 322
205 223 191 251 277 225 227 255 267 256 256 256 259 259 257 257 259 262 263 268 267 266 270 267 268 268 268 266 266 268 272 277 283 287 293 298 301 306 314 316 319 319 316
174 169 164 210 230 217 220 242 279 247 236 246 248 253 267 267 263 263 262 264 266 266 270 273 273 271 271 265 265 265 267 271 276 282 284 287 292 296 302 306 306 305 303
191 199 220 222 237 241 252 256 298 259 245 249 246 254 283 282 269 262 260 260 265 269 273 277 278 277 275 270 267 267 265 265 267 272 277 281 286 292 295 297 296 297 297
156 200 221 235 233 239 230 268 293 290 276 259 251 246 295 278 278 270 265 269 266 267 270 273 275 276 275 272 270 270 270 270 271 272 274 277 281 285 289 290 291 295 296
123 128 142 160 204 242 262 265 270 281 301 273 232 242 276 281 272 278 274 286 273 266 268 274 274 273 271 271 269 269 270 273 278 276 276 278 282 285 286 285 289 291 294
140 158 168 175 179 186 201 207 194 234 251 264 265 213 236 281 312 304 291 281 278 273 279 278 275 278 276 270 265 265 268 273 275 275 277 279 280 282 285 287 287 286 286
236 246 241 230 227 223 225 204 191 185 191 186 189 212 233 253 270 292 297 297 297 288 283 296 301 300 314 315 312 298 286 277 278 279 276 279 279 283 285 287 285 283 274
271 242 236 235 234 236 240 239 236 230 227 229 232 237 251 266 273 278 283 292 300 305 302 302 301 304 315 319 315 301 296 298 296 295 290 288 290 292 292 293 288 287 286
257 262 253 244 239 240 241 240 241 247 255 262 264 268 273 273 274 279 279 279 285 289 290 297 302 302 304 306 304 304 299 298 292 287 289 291 293 293 289 293 295 291 286
196 220 230 244 258 255 250 252 253 255 256 263 269 275 280 286 289 291 292 288 287 293 295 295 293 295 297 299 299 299 299 295 288 288 288 291 292 295 295 297 300 301 296
189 182 186 198 216 235 249 262 260 265 273 276 279 279 282 285 289 291 292 293 293 292 292 293 294 296 299 299 298 297 298 299 298 294 293 294 296 295 295 297 295 294 297
239 239 277 94 158 238 264 242 224 277 270 279 281 285 288 289 292 294 296 294 292 292 292 293 293 293 293 293 294 293 291 293 295 297 300 301 300 299 295 294 292 291 291
233 53 47 50 40 26 11 357 340 322 304 301 296 287 287 292 294 293 294 295 294 292 292 293 296 298 299 295 290 289 285 286 288 289 290 291 296 300 301 302 300 296 293
176 130 76 55 44 34 25 15 7 357 348 336 328 319 314 312 312 313 313 311 307 304 302 297 290 289 292 290 289 290 289 290 289 288 287 289 293 296 297 300 302 303 305
167 152 116 47 27 16 9 5 2 0 357 352 349 344 338 335 334 333 333 330 326 320 313 306 299 288 279 277 277 278 279 280 284 286 287 289 288 291 295 298 301 303 304
182 176 167 43 8 0 360 360 359 357 356 355 354 350 347 345 344 342 338 336 332 328 321 315 308 300 287 279 274 278 278 281 279 277 280 284 286 289 290 290 293 297 301
198 195 181 15 0 1 360 -0 359 360 358 356 354 351 348 346 344 342 339 337 333 329 325 318 310 304 303 297 282 273 282 278 280 281 281 281 281 283 286 288 291 294 295
204 199 205 321 352 1 2 1 1 1 359 357 354 351 348 347 345 343 340 337 334 331 327 322 316 307 301 299 302 293 284 279 280 281 281 278 279 278 281 283 286 288 290
208 208 228 290 338 357 4 3 360 357 356 353 350 348 346 344 343 341 339 337 333 330 327 323 318 313 308 302 285 276 278 285 288 287 286 283 279 276 277 278 279 278 283
209 218 225 265 314 341 356 360 357 356 355 350 345 342 340 338 337 338 336 336 334 331 329 326 320 314 309 306 301 296 291 288 286 284 282 282 282 280 276 273 273 275 275
210 215 228 255 287 312 333 346 350 349 346 345 344 341 339 339 335 336 335 336 334 333 332 329 325 320 315 311 307 302 296 293 289 287 285 283 282 282 281 279 277 276 278